Weather reports worldwide

Advertisment
Altnaharra, United Kingdom (3044): temperature & dewpoint: 24.09.2020 23:00:00 - 30.09.2020 23:00:00 (BST)Altnaharra, United Kingdom (3044): temperature -20cm & temperature -100cm: 24.09.2020 23:00:00 - 30.09.2020 23:00:00 (BST)Altnaharra, United Kingdom (3044): wind speed & gusts: 24.09.2020 23:00:00 - 30.09.2020 23:00:00 (BST)Altnaharra, United Kingdom (3044): wind direction: 24.09.2020 23:00:00 - 30.09.2020 23:00:00 (BST)Altnaharra, United Kingdom (3044): reduced air pressure: 24.09.2020 23:00:00 - 30.09.2020 23:00:00 (BST)Altnaharra, United Kingdom (3044): visibility: 24.09.2020 23:00:00 - 30.09.2020 23:00:00 (BST)Altnaharra, United Kingdom (3044): sunshine duration: 24.09.2020 23:00:00 - 30.09.2020 23:00:00 (BST)Altnaharra, United Kingdom (3044): precipitation: 24.09.2020 23:00:00 - 30.09.2020 23:00:00 (BST)
Date & Time tt [°C] td [°C] tt -20cm [°C] tt -100cm [°C] ff [km/h] ff [kn] fx [km/h] fx [kn] dd ppp [hPa] vv [km] sd [min] rr [mm]
30.09.2020 23:00:00 7,5 7,0 - - 4 2 - - WSW 998,2 19 0 0,0
30.09.2020 22:00:00 7,9 7,2 - - 2 1 - - SE 998,5 13 0 0,2
30.09.2020 21:00:00 8,3 7,6 - - 2 1 - - N 998,3 14 0 0,4
30.09.2020 20:00:00 8,7 7,9 - - 5 3 - - WSW 997,9 14 0 0,0
30.09.2020 19:00:00 9,1 8,4 - - 5 3 - - SSW 997,4 21 0 0,2
30.09.2020 18:00:00 9,9 9,0 - - 11 6 - - WSW 996,8 30 0 0,6
30.09.2020 17:00:00 10,2 9,4 - - 13 7 - - WSW 996,6 17 0 1,8
30.09.2020 16:00:00 11,1 10,3 - - 8 4 - - WNW 996,0 11 0 3,0
30.09.2020 15:00:00 11,5 10,0 - - 2 1 - - W 995,9 17 0 0,6
30.09.2020 14:00:00 11,7 8,9 - - 9 5 - - ENE 996,0 17 0 0,8
30.09.2020 13:00:00 11,2 8,8 - - 18 10 - - SE 995,7 40 0 0,4
30.09.2020 12:00:00 11,5 8,3 - - 28 15 - - ESE 995,8 40 0 0,0
30.09.2020 11:00:00 11,5 8,2 - - 24 13 - - ESE 996,1 45 0 0,0
30.09.2020 10:00:00 11,8 7,5 - - 26 14 - - ESE 996,2 45 0 0,0
30.09.2020 09:00:00 11,5 7,1 - - 31 17 57 31 ESE 996,5 50 0 0,0
30.09.2020 08:00:00 10,9 6,4 - - 37 20 61 33 ESE 996,9 50 0 0,0
30.09.2020 07:00:00 10,4 6,3 - - 34 18 55 30 ESE 997,2 50 0 0,2
30.09.2020 06:00:00 9,4 6,3 - - 24 13 54 29 ESE 998,4 22 0 0,6
30.09.2020 05:00:00 9,6 5,7 - - 31 17 57 31 ESE 999,4 20 0 0,2
30.09.2020 04:00:00 10,8 3,7 - - 35 19 55 30 ESE 1000,3 45 0 0,0
30.09.2020 03:00:00 10,6 3,7 - - 24 13 - - ESE 1002,0 50 0 0,0
30.09.2020 02:00:00 10,4 4,8 - - 18 10 - - ESE 1003,3 45 0 0,0
30.09.2020 01:00:00 9,3 4,8 - - 24 13 - - ENE 1004,6 50 - 0,0
30.09.2020 00:00:00 10,8 3,6 - - 21 11 - - ESE 1005,6 50 0 0,0
29.09.2020 23:00:00 10,5 5,6 - - 13 7 - - E 1006,9 50 0 0,0
29.09.2020 22:00:00 10,1 5,5 - - 13 7 - - NE 1007,9 35 0 0,0
29.09.2020 21:00:00 11,1 5,5 - - 13 7 - - ESE 1008,6 45 0 0,0
29.09.2020 20:00:00 11,0 6,3 - - 21 11 - - SE 1009,5 50 0 0,0
29.09.2020 19:00:00 11,5 6,6 - - 21 11 - - ESE 1010,0 50 0 0,0
29.09.2020 18:00:00 13,0 5,5 - - 13 7 - - SE 1010,3 27 0 0,0
29.09.2020 17:00:00 13,4 4,9 - - 13 7 - - SSE 1010,6 45 24 0,0
29.09.2020 16:00:00 15,0 5,3 - - 13 7 - - SSE 1010,9 45 36 0,0
29.09.2020 15:00:00 14,2 5,5 - - 8 4 - - S 1011,6 40 36 0,0
29.09.2020 14:00:00 13,5 5,5 - - 13 7 - - SSE 1012,4 35 48 0,0
29.09.2020 13:00:00 14,7 5,6 - - 11 6 - - SSE 1012,9 30 36 0,0
29.09.2020 12:00:00 12,9 5,0 - - 13 7 - - SE 1013,4 30 60 0,0
29.09.2020 11:00:00 12,3 6,1 - - 16 9 - - SSE 1014,0 45 60 0,0
29.09.2020 10:00:00 11,0 7,2 10,7 11,9 5 3 - - S 1014,2 28 - 0,0
29.09.2020 09:00:00 8,7 6,1 - - 11 6 - - S 1014,2 30 - 0,0
29.09.2020 08:00:00 8,1 6,6 - - 8 4 - - SE 1014,0 35 - 0,0
29.09.2020 07:00:00 8,4 6,5 - - 13 7 - - S 1013,7 30 - 0,0
29.09.2020 06:00:00 5,8 4,2 - - 4 2 - - NNW 1013,4 35 - 0,0
29.09.2020 05:00:00 7,1 5,2 - - 4 2 - - W 1013,2 30 - 0,0
29.09.2020 04:00:00 6,7 5,2 - - 5 3 - - SSE 1013,2 30 - 0,0
29.09.2020 03:00:00 8,0 6,0 - - 13 7 - - S 1012,9 40 - 0,0
29.09.2020 02:00:00 9,0 6,3 - - 13 7 - - SW 1012,2 50 - 0,0
29.09.2020 01:00:00 9,3 6,3 - - 8 4 - - NNE 1012,1 50 - 0,0
29.09.2020 00:00:00 8,7 6,5 - - 11 6 - - SSW 1011,7 40 - 0,0
28.09.2020 23:00:00 8,4 6,1 - - 11 6 - - S 1011,4 45 - 0,0
28.09.2020 22:00:00 7,6 6,2 - - 9 5 - - SSE 1011,3 30 - 0,0
28.09.2020 21:00:00 9,4 6,5 - - 8 4 - - S 1010,7 50 - 0,0
28.09.2020 20:00:00 10,0 7,3 - - 11 6 - - SSW 1009,9 35 - 0,0
28.09.2020 19:00:00 10,1 7,0 - - 9 5 - - SSW 1009,1 50 - 0,2
28.09.2020 18:00:00 10,9 8,4 - - 9 5 50 27 S 1008,5 50 - 0,2
28.09.2020 17:00:00 13,5 8,0 - - 11 6 - - SSW 1007,2 45 - 0,0
28.09.2020 16:00:00 13,9 8,1 - - 16 9 - - SSW 1006,8 35 - 0,0
28.09.2020 15:00:00 13,5 7,9 - - 18 10 - - SW 1006,5 50 - 0,0
28.09.2020 14:00:00 13,7 8,8 - - 13 7 - - SW 1006,2 50 - 0,0
28.09.2020 13:00:00 14,6 9,7 - - 15 8 - - SW 1006,0 40 6 0,0
28.09.2020 12:00:00 12,1 10,0 - - 15 8 - - SW 1005,5 45 0 0,0
28.09.2020 11:00:00 11,3 9,4 - - 8 4 - - SSE 1005,0 26 0 0,2
28.09.2020 10:00:00 9,6 7,7 10,7 12,0 11 6 - - N 1004,8 30 0 0,0
28.09.2020 09:00:00 8,3 7,2 - - 4 2 - - WSW 1005,1 40 0 0,0
28.09.2020 08:00:00 7,7 6,2 - - 4 2 - - NNE 1005,8 35 0 0,0
28.09.2020 07:00:00 6,7 6,0 - - 4 2 - - W 1006,2 50 0 0,0
28.09.2020 06:00:00 5,8 5,5 - - 4 2 - - N 1006,8 30 0 0,0
28.09.2020 05:00:00 5,4 5,2 - - 2 1 - - E 1007,5 25 0 0,0
28.09.2020 04:00:00 5,0 4,9 - - 8 4 - - NNE 1008,6 30 0 0,0
28.09.2020 03:00:00 3,7 3,5 - - 4 2 - - ESE 1009,4 24 0 0,0
28.09.2020 02:00:00 3,6 3,2 - - 2 1 - - SW 1010,1 16 0 0,0
28.09.2020 01:00:00 3,6 3,2 - - 2 1 - - SSE 1010,7 30 - 0,0
28.09.2020 00:00:00 3,2 2,6 - - 0 0 - - N 1011,3 22 0 0,0
27.09.2020 23:00:00 4,3 3,4 - - 2 1 - - NW 1012,0 21 0 0,0
27.09.2020 22:00:00 4,5 3,3 - - 4 2 - - W 1012,5 35 0 0,0
27.09.2020 21:00:00 6,1 4,2 - - 4 2 - - ENE 1012,6 29 0 0,0
27.09.2020 20:00:00 6,9 4,2 - - 8 4 - - W 1012,7 35 0 0,0
27.09.2020 19:00:00 8,5 4,1 - - 8 4 - - S 1013,1 35 0 0,0
27.09.2020 18:00:00 8,9 3,6 - - 11 6 - - S 1013,3 40 0 0,0
27.09.2020 17:00:00 9,8 3,7 - - 9 5 - - S 1013,9 40 0 0,0
27.09.2020 16:00:00 10,4 3,9 - - 4 2 - - W 1014,2 30 0 0,0
27.09.2020 15:00:00 11,0 4,1 - - 2 1 - - S 1014,8 35 0 0,0
27.09.2020 14:00:00 10,5 3,4 - - 4 2 - - WNW 1015,3 40 60 0,0
27.09.2020 13:00:00 10,0 3,8 - - 4 2 - - E 1015,8 30 60 0,0
27.09.2020 12:00:00 9,2 3,5 - - 8 4 - - E 1016,6 20 60 0,0
27.09.2020 11:00:00 7,2 5,1 - - 5 3 - - ESE 1017,4 21 60 0,0
27.09.2020 10:00:00 2,2 2,2 - - 4 2 - - NW 1018,1 25 6 0,2
27.09.2020 09:00:00 -1,1 -1,1 - - 2 1 - - W 1019,0 23 0 0,0
27.09.2020 08:00:00 -4,0 -4,2 - - 4 2 - - WNW 1019,2 9 0 0,0
27.09.2020 07:00:00 -3,4 -3,6 - - 2 1 - - W 1019,6 11 0 0,0
27.09.2020 06:00:00 -2,9 -3,0 - - 5 3 - - W 1019,9 15 0 0,0
27.09.2020 05:00:00 -2,8 -3,0 - - 2 1 - - WNW 1020,4 10 0 0,0
27.09.2020 04:00:00 -2,1 -2,4 - - 5 3 - - WNW 1021,0 16 0 0,0
27.09.2020 03:00:00 -0,2 -0,2 - - 5 3 - - WSW 1021,6 19 0 0,0
27.09.2020 02:00:00 -0,5 -0,6 - - 4 2 - - WNW 1022,1 17 0 0,0
27.09.2020 01:00:00 -1,2 -1,4 - - 8 4 - - W 1022,6 18 - 0,0
27.09.2020 00:00:00 -0,8 -1,0 - - 4 2 - - NW 1022,7 16 0 0,0
26.09.2020 23:00:00 -0,2 -0,5 - - 4 2 - - W 1023,0 19 0 0,0
26.09.2020 22:00:00 -0,2 -0,5 - - 4 2 - - E 1023,1 8 0 0,0
26.09.2020 21:00:00 0,5 0,0 - - 5 3 - - NW 1023,2 18 0 0,0
26.09.2020 20:00:00 1,9 0,6 - - 8 4 - - WSW 1023,0 19 0 0,0
26.09.2020 19:00:00 6,4 2,7 - - 4 2 - - N 1022,6 35 24 0,0
26.09.2020 18:00:00 9,2 3,7 - - 16 9 - - N 1022,1 20 30 0,0
26.09.2020 17:00:00 9,6 3,7 - - 22 12 - - N 1021,6 40 24 0,0
26.09.2020 16:00:00 11,6 3,6 - - 21 11 - - N 1021,7 45 36 0,0
26.09.2020 15:00:00 10,9 3,4 - - 21 11 - - N 1021,6 30 24 0,0
26.09.2020 14:00:00 11,2 4,9 - - 21 11 - - NNW 1021,4 30 18 0,0
26.09.2020 13:00:00 11,0 4,1 - - 21 11 - - N 1021,2 50 6 0,0
26.09.2020 12:00:00 10,4 3,3 - - 21 11 - - N 1020,9 24 0 0,0
26.09.2020 11:00:00 10,9 3,8 - - 22 12 - - N 1020,3 28 36 0,0
26.09.2020 10:00:00 9,2 5,0 - - 5 3 - - NW 1019,9 30 42 0,0
26.09.2020 09:00:00 7,9 6,9 - - 8 4 - - N 1019,3 30 24 0,0
26.09.2020 08:00:00 3,9 3,3 - - 4 2 - - W 1018,8 30 0 0,0
26.09.2020 07:00:00 4,3 4,2 - - 5 3 - - NW 1018,1 50 0 0,2
26.09.2020 06:00:00 2,3 1,5 - - 4 2 - - SE 1017,6 35 0 0,0
26.09.2020 05:00:00 3,4 2,4 - - 4 2 - - ENE 1016,9 50 0 0,0
26.09.2020 04:00:00 4,2 3,8 - - 11 6 - - WNW 1016,5 50 0 0,2
26.09.2020 03:00:00 2,4 1,7 - - 2 1 - - N 1016,1 40 0 0,2
26.09.2020 02:00:00 3,0 2,0 - - 11 6 - - NW 1015,6 45 0 0,0
26.09.2020 01:00:00 5,2 4,5 - - 16 9 - - W 1015,3 45 - 0,0
26.09.2020 00:00:00 6,2 5,0 - - 18 10 - - WNW 1015,2 30 0 1,0
25.09.2020 23:00:00 2,5 2,0 - - 8 4 - - WNW 1015,4 13 0 0,0
25.09.2020 22:00:00 4,5 3,4 - - 4 2 - - WNW 1015,4 35 0 0,0
25.09.2020 21:00:00 5,2 4,0 - - 13 7 - - W 1015,4 35 0 0,0
25.09.2020 20:00:00 5,5 3,4 - - 11 6 - - W 1015,1 8 0 0,0
25.09.2020 19:00:00 6,5 3,1 - - 18 10 - - W 1014,6 35 24 0,0
25.09.2020 18:00:00 7,6 2,6 - - 28 15 - - W 1014,1 30 36 0,0
25.09.2020 17:00:00 9,9 3,1 - - 31 17 46 25 W 1014,1 45 54 0,0
25.09.2020 16:00:00 8,5 2,1 - - 31 17 46 25 WNW 1014,2 21 42 0,0
25.09.2020 15:00:00 10,7 2,6 - - 31 17 50 27 WNW 1013,8 40 42 0,0
25.09.2020 14:00:00 10,1 3,3 - - 28 15 - - NW 1013,8 35 42 0,0
25.09.2020 13:00:00 10,0 4,0 - - 24 13 52 28 NW 1013,3 29 18 0,2
25.09.2020 12:00:00 9,4 5,5 - - 18 10 52 28 NW 1012,7 30 18 0,2
25.09.2020 11:00:00 8,9 5,5 - - 11 6 - - NW 1012,0 35 0 0,0
25.09.2020 10:00:00 8,5 4,7 11,7 12,7 16 9 - - NW 1011,2 40 0 0,0
25.09.2020 09:00:00 6,8 5,2 - - 5 3 - - W 1010,8 50 6 0,0
25.09.2020 08:00:00 5,9 4,5 - - 8 4 - - WNW 1010,0 50 0 0,0
25.09.2020 07:00:00 6,0 4,8 - - 13 7 - - WNW 1009,3 50 0 0,0
25.09.2020 06:00:00 6,7 6,1 - - 8 4 - - W 1008,3 50 0 0,8
25.09.2020 05:00:00 7,1 7,0 - - 13 7 - - NW 1007,5 7 0 1,4
25.09.2020 04:00:00 4,9 4,6 - - 2 1 - - WSW 1006,8 3,4 0 0,4
25.09.2020 03:00:00 4,9 4,7 - - 4 2 - - W 1006,2 50 0 0,0
25.09.2020 02:00:00 4,6 4,5 - - 4 2 - - WNW 1005,7 45 0 0,0
25.09.2020 01:00:00 3,8 3,6 - - 4 2 - - W 1005,1 28 - 0,2
25.09.2020 00:00:00 3,1 3,0 - - 4 2 - - W 1004,7 28 0 0,0
24.09.2020 23:00:00 2,2 1,7 - - 2 1 - - N 1003,9 35 0 0,0

tt = temperature
td = dewpoint
tt -20cm = temperature -20cm
tt -100cm = temperature -100cm
ff = wind speed
fx = gusts
dd = wind direction
ppp = reduced air pressure
vv = visibility
sd = sunshine duration
rr = precipitation

Next stations